EW5212 Weather Reports


time (UTC)temp
F
wind
direction
speed
knots
gust
knots
rain 1hr
in
rain 24hr
in
rain mn
in
humidity
%
barometer
mb
20260507043015 68 248 0.9 3.5 0.00 0.11 0.00 87 1010.9
20260507042015 69 0.0 1.7 0.00 0.11 0.00 87 1011.0
20260507041015 69 0.0 1.7 0.00 0.11 0.00 87 1010.5
20260507040015 69 270 0.9 2.6 0.00 0.11 0.00 87 1010.6
20260507035017 69 270 0.9 4.3 0.00 0.11 0.11 87 1010.8
20260507034016 69 270 0.9 4.3 0.00 0.11 0.11 87 1011.2
20260507033015 69 270 0.9 1.7 0.00 0.11 0.11 86 1010.9
20260507032017 69 270 0.9 1.7 0.00 0.11 0.11 86 1010.7
20260507031017 69 0 0.9 1.7 0.00 0.11 0.11 86 1010.4
20260507030017 69 270 0.9 3.5 0.00 0.11 0.11 86 1010.3
20260507025017 69 270 0.9 2.6 0.00 0.11 0.11 86 1010.1
20260507024017 69 270 0.9 3.5 0.00 0.11 0.11 86 1010.2
20260507023017 69 0.0 1.7 0.00 0.11 0.11 86 1010.4
20260507022017 69 270 0.9 3.5 0.00 0.11 0.11 86 1010.4
20260507021017 69 270 0.9 6.1 0.00 0.11 0.11 86 1010.8
20260507020037 69 270 0.9 3.5 0.00 0.11 0.11 86 1010.7
20260507015017 69 270 0.9 2.6 0.00 0.11 0.11 86 1010.7
20260507014037 69 0.0 1.7 0.00 0.11 0.11 86 1010.7
20260507013037 69 0.0 3.5 0.00 0.11 0.11 85 1010.7
20260507012057 69 270 0.9 4.3 0.00 0.11 0.11 85 1010.7
20260507011017 69 225 0.9 1.7 0.00 0.11 0.11 85 1010.7
20260507010017 69 0.0 0.9 0.00 0.11 0.11 85 1010.4
20260507005017 69 270 0.9 4.3 0.00 0.11 0.11 84 1010.2
20260507004016 69 248 0.9 3.5 0.00 0.11 0.11 84 1010.5
20260507003016 69 270 0.9 4.3 0.00 0.11 0.11 83 1010.9
20260507002017 70 0.0 2.6 0.00 0.11 0.11 83 1010.7
20260507001016 70 293 0.9 4.3 0.00 0.11 0.11 82 1010.8
20260507000116 70 270 0.9 4.3 0.00 0.11 0.11 82 1010.6
20260506235017 71 293 0.9 4.3 0.00 0.11 0.11 81 1010.5
20260506234017 71 270 0.9 2.6 0.00 0.11 0.11 80 1010.4
20260506233016 71 270 0.9 3.5 0.00 0.11 0.11 80 1010.2
20260506232017 72 270 1.7 3.5 0.00 0.11 0.11 79 1010.3
20260506231017 72 293 1.7 9.6 0.00 0.11 0.11 78 1010.3
20260506230016 72 293 0.9 4.3 0.00 0.11 0.11 78 1010.2
20260506225016 72 293 0.9 2.6 0.00 0.11 0.11 79 1010.3
20260506224016 72 270 0.9 2.6 0.00 0.11 0.11 79 1010.5
20260506223017 71 0 0.9 3.5 0.00 0.11 0.11 79 1010.3
20260506222016 71 270 0.9 7.0 0.00 0.11 0.11 78 1010.4
20260506221016 72 270 1.7 6.1 0.00 0.11 0.11 78 1010.5
20260506220037 72 293 1.7 6.1 0.00 0.11 0.11 78 1010.1
20260506215016 72 293 0.9 3.5 0.00 0.11 0.11 78 1010.2
20260506214016 72 293 2.6 6.1 0.00 0.11 0.11 78 1010.5
20260506213016 72 270 1.7 6.1 0.00 0.11 0.11 78 1010.3
20260506212016 72 270 1.7 7.0 0.00 0.11 0.11 78 1010.6
20260506211017 72 293 1.7 7.0 0.00 0.11 0.11 78 1010.4
20260506210016 72 293 1.7 11.3 0.00 0.11 0.11 78 1010.3
20260506205016 72 68 1.7 4.3 0.00 0.11 0.11 80 1010.5
20260506204016 71 0 0.9 2.6 0.00 0.11 0.11 81 1010.6
20260506203016 70 270 0.9 2.6 0.00 0.11 0.11 83 1010.3
20260506202037 69 23 0.9 2.6 0.00 0.11 0.11 83 1010.2
20260506201036 69 0.0 2.6 0.00 0.11 0.11 84 1010.8
20260506200016 69 270 0.9 4.3 0.00 0.11 0.11 84 1010.7
20260506195022 69 0.0 1.7 0.00 0.11 0.11 84 1010.3
20260506194016 68 270 0.9 2.6 0.00 0.11 0.11 84 1010.2
20260506193016 68 270 0.9 4.3 0.00 0.11 0.11 85 1010.2
20260506192016 68 270 0.9 3.5 0.00 0.11 0.11 86 1010.3
20260506191016 67 270 0.9 4.3 0.00 0.11 0.11 86 1010.9
20260506190016 67 45 0.9 3.5 0.00 0.11 0.11 87 1011.1
20260506185016 66 293 0.9 4.3 0.00 0.11 0.11 88 1011.3
20260506184016 66 293 0.9 5.2 0.00 0.11 0.11 88 1011.1
20260506183016 66 293 0.9 4.3 0.00 0.11 0.11 87 1011.3
20260506182016 66 293 1.7 6.1 0.00 0.11 0.11 86 1011.1
20260506181016 67 270 2.6 7.8 0.00 0.11 0.11 85 1011.7
20260506180016 67 270 0.9 6.1 0.00 0.11 0.11 86 1012.0
20260506175016 66 293 2.6 9.6 0.00 0.11 0.11 87 1011.8
20260506174016 66 293 1.7 5.2 0.00 0.11 0.11 88 1012.0
20260506173016 66 315 1.7 7.8 0.00 0.11 0.11 90 1011.9
20260506172016 65 293 0.9 7.0 0.00 0.11 0.11 90 1011.9
20260506171036 65 293 1.7 6.1 0.01 0.11 0.11 89 1011.7
20260506170016 65 270 1.7 4.3 0.01 0.11 0.11 90 1011.9
20260506165016 65 23 0.9 2.6 0.02 0.11 0.11 90 1012.1
20260506164016 65 270 0.9 6.1 0.02 0.11 0.11 91 1012.4
20260506163016 64 270 0.9 6.1 0.02 0.11 0.11 91 1012.4
20260506162016 64 68 0.9 4.3 0.02 0.11 0.11 91 1012.2
20260506161016 63 90 0.9 6.1 0.01 0.10 0.10 91 1012.1
20260506160016 63 113 0.9 3.5 0.01 0.10 0.10 91 1012.2
20260506155016 63 270 0.9 5.2 0.00 0.09 0.09 91 1012.1
20260506154016 63 68 1.7 4.3 0.00 0.09 0.09 92 1012.2
20260506153016 63 293 0.9 5.2 0.01 0.09 0.09 92 1012.4
20260506152036 63 90 0.9 3.5 0.03 0.09 0.09 93 1012.5
20260506151016 62 113 0.9 2.6 0.06 0.09 0.09 92 1012.7
20260506150016 63 0.0 1.7 0.08 0.09 0.09 93 1012.8
20260506145016 62 0.0 3.5 0.09 0.09 0.09 92 1013.0
20260506144016 62 0 0.9 2.6 0.09 0.09 0.09 91 1012.9
20260506143016 62 90 0.9 2.6 0.08 0.08 0.08 90 1013.1
20260506142016 63 338 0.9 2.6 0.06 0.06 0.06 88 1013.2
20260506141016 64 293 0.9 3.5 0.03 0.03 0.03 86 1013.0
20260506140016 64 0.0 1.7 0.01 0.01 0.01 84 1012.8
20260506135016 65 90 1.7 7.0 0.00 0.00 0.00 81 1012.9
20260506134016 66 113 1.7 7.0 0.00 0.00 0.00 78 1012.9
20260506133016 66 338 0.9 5.2 0.00 0.00 0.00 78 1012.9
20260506132016 66 270 0.9 6.1 0.00 0.00 0.00 78 1012.8
20260506131016 65 270 0.9 7.0 0.00 0.00 0.00 78 1012.8
20260506130036 65 113 1.7 6.1 0.00 0.00 0.00 79 1012.7
20260506125036 65 270 0.9 6.1 0.00 0.00 0.00 80 1012.7
20260506124016 65 45 1.7 9.6 0.00 0.00 0.00 80 1012.6
20260506123016 65 90 0.9 7.8 0.00 0.00 0.00 79 1012.7
20260506122036 66 0.0 1.7 0.00 0.00 0.00 78 1012.6
20260506121016 66 315 1.7 7.0 0.00 0.00 0.00 77 1012.6
20260506120016 66 0 1.7 7.8 0.00 0.00 0.00 77 1012.5
20260506115016 66 68 0.9 3.5 0.00 0.00 0.00 77 1012.5
20260506114016 65 293 1.7 7.0 0.00 0.00 0.00 77 1012.5
20260506113036 65 68 0.9 3.5 0.00 0.00 0.00 77 1012.4
20260506112016 65 0.0 1.7 0.00 0.00 0.00 77 1012.5
20260506110016 65 90 1.7 4.3 0.00 0.00 0.00 77 1012.3
20260506105016 65 293 0.9 4.3 0.00 0.00 0.00 77 1012.4
20260506104016 64 68 1.7 6.1 0.00 0.00 0.00 77 1012.4
20260506103015 65 68 0.9 6.1 0.00 0.00 0.00 77 1012.6
20260506102015 65 68 0.9 2.6 0.00 0.00 0.00 77 1012.7
20260506101016 65 90 0.9 3.5 0.00 0.00 0.00 77 1012.5
20260506100016 65 293 0.9 4.3 0.00 0.00 0.00 77 1012.6
20260506095016 65 90 0.9 2.6 0.00 0.00 0.00 78 1012.5
20260506094016 65 293 0.9 5.2 0.00 0.00 0.00 78 1012.5
20260506093016 65 45 1.7 6.1 0.00 0.00 0.00 78 1012.4
20260506092016 65 113 0.9 5.2 0.00 0.00 0.00 78 1012.4
20260506091035 65 68 1.7 6.1 0.00 0.00 0.00 78 1012.4
20260506090035 65 270 0.9 5.2 0.00 0.00 0.00 78 1012.5
20260506085015 65 270 0.9 6.1 0.00 0.00 0.00 78 1012.6
20260506084016 65 0.0 1.7 0.00 0.00 0.00 78 1012.6
20260506083016 65 293 0.9 4.3 0.00 0.00 0.00 78 1012.9
20260506082016 65 68 0.9 5.2 0.00 0.00 0.00 78 1012.9
20260506081016 65 23 0.9 2.6 0.00 0.00 0.00 77 1012.8
20260506073015 66 338 0.9 3.5 0.00 0.00 0.00 75 1013.0
20260506072015 66 270 0.9 4.3 0.00 0.00 0.00 75 1013.0
20260506071015 66 0 1.7 7.8 0.00 0.00 0.00 74 1013.1
20260506062015 67 45 1.7 7.0 0.00 0.00 0.00 73 1013.3
20260506061036 68 90 1.7 5.2 0.00 0.00 0.00 73 1013.1
20260506051015 69 68 1.7 8.7 0.00 0.00 0.00 70 1013.6
20260506045015 69 113 0.9 5.2 0.00 0.00 0.00 69 1013.8
20260506044015 70 90 0.9 4.3 0.00 0.00 0.00 67 1013.9